Location: Fort Wayne
(41.1310°N, 85.1290°W)
Time: 09:23:47
(UTC-04:00)

IDEFIX/ARIANE 42P - Visible Passes

Search period start: 31 July 2015 00:00
Search period end: 10 August 2015 00:00
Orbit: 784 x 804 km, 98.3° (Epoch: 30 July)

Date Brightness Start Highest point End Pass type
(mag) Time Alt. Az. Time Alt. Az. Time Alt. Az.
31 Jul 5.7 22:11:46 10° W 22:12:59 10° W 22:13:48 10° WNW visible
01 Aug 5.1 21:40:23 10° SW 21:44:16 20° W 21:48:00 10° NW visible
04 Aug 5.3 21:56:21 10° WSW 21:59:17 14° W 22:01:56 10° WNW visible
05 Aug 4.8 21:26:16 10° SSW 21:30:39 27° W 21:34:57 10° NW visible
08 Aug 5.2 21:41:52 10° SW 21:45:37 19° W 21:49:12 10° NW visible
09 Aug 4.3 21:12:19 10° SSW 21:17:04 35° W 21:21:46 10° NNW visible
